Temp
17 17 18 18 18 17 18 18 18 18 18 18 18 18 19 19 18 18 18 18 18 18 18 18 18 18 18 18 18 18 18 18 18 18 18 18 18 18 18 18 18 18 19
17 17 17 17 18 17 17 18 17 18 18 18 18 18 18 18 18 18 18 18 18 18 18 18 18 18 18 18 18 18 18 18 18 18 18 18 18 18 18 18 18 18 18
17 17 17 17 18 16 17 17 17 17 18 18 18 18 18 18 18 17 17 17 17 17 17 17 17 17 17 17 17 17 17 17 17 17 17 17 18 18 18 18 18 17 17
17 17 17 17 18 17 17 17 17 17 18 18 18 18 18 17 17 17 17 17 17 17 17 17 17 17 17 17 17 17 17 18 18 18 17 17 17 17 17 18 17 18 17
16 17 17 17 17 17 17 17 17 18 18 18 18 17 17 17 16 16 16 17 16 16 16 16 16 16 16 16 16 17 17 17 18 18 17 17 16 17 17 17 17 17 17
17 18 16 17 17 16 16 17 18 17 17 17 17 17 17 17 16 15 16 17 17 16 15 15 15 15 16 17 17 17 17 17 17 17 17 16 16 16 16 16 16 17 17
16 17 16 16 16 16 15 17 18 17 16 17 16 15 16 15 14 15 15 16 15 15 15 14 14 15 17 17 17 16 16 17 17 17 16 15 15 15 15 16 16 16 16
16 16 15 16 15 15 15 17 18 16 15 14 14 13 13 14 14 14 14 14 14 14 14 14 13 15 16 16 17 16 16 16 16 15 14 14 15 15 15 15 15 15 15
16 16 15 15 15 15 15 14 15 14 14 14 14 14 14 13 13 14 14 14 13 13 13 12 13 15 16 16 16 16 16 15 15 15 14 14 14 15 15 14 14 15 15
16 15 15 15 15 15 14 14 14 14 13 13 12 13 13 13 13 13 13 13 12 12 12 11 13 15 15 15 15 15 15 15 14 14 14 14 14 14 14 14 14 14 14
15 15 15 14 14 14 14 14 14 14 14 13 13 13 12 12 11 12 12 11 11 11 11 12 13 14 14 14 14 14 14 14 14 14 14 14 14 14 14 14 13 13 13
14 14 15 14 14 14 14 13 13 13 12 12 12 13 13 13 12 11 11 10 10 10 10 11 11 13 14 14 14 13 13 13 13 13 13 14 13 13 13 13 12 12 12
13 14 14 14 14 14 13 13 12 12 12 12 12 12 13 12 11 11 10 10 11 12 11 12 12 13 13 13 13 12 12 12 12 13 13 13 12 12 11 11 11 11 11
12 14 14 14 13 13 13 13 13 13 12 12 11 12 11 11 11 10 10 10 11 13 12 11 12 12 12 12 12 11 11 12 12 11 11 12 11 11 11 10 10 10 10
12 13 14 13 13 12 13 13 12 12 12 12 11 11 11 11 10 10 10 10 10 11 11 11 11 11 11 11 11 11 11 11 11 11 11 11 9 9 9 9 9 9 9
12 13 13 13 12 12 12 12 12 12 12 11 12 11 11 11 10 10 10 10 10 11 10 10 10 10 10 10 10 10 10 10 10 10 10 8 7 7 8 8 8 8 8
13 13 13 13 13 12 12 11 11 11 11 11 11 12 12 12 12 12 12 12 12 11 10 10 9 9 9 10 10 9 9 9 9 9 8 7 7 6 6 6 6 6 6
12 13 13 12 12 12 12 11 11 11 11 11 11 12 12 12 12 13 12 11 11 10 10 9 9 9 8 9 8 9 8 8 7 7 7 6 6 6 5 5 4 5 5
13 12 12 12 11 11 11 11 11 11 10 10 11 11 11 11 11 12 11 10 10 10 9 9 8 9 8 8 8 8 8 7 7 6 6 5 5 5 5 4 4 3 4
13 13 12 12 11 11 10 10 10 10 9 9 9 9 9 10 9 10 9 9 9 9 9 9 9 8 8 8 7 7 7 7 7 6 6 6 5 5 5 4 4 4 3
13 12 12 11 11 11 9 9 9 8 8 9 9 8 8 8 8 9 9 9 8 8 8 8 8 8 7 7 6 6 6 6 6 6 6 5 5 4 4 4 4 4 4
12 12 11 11 10 10 9 9 8 8 7 8 7 7 8 8 8 8 8 9 8 8 7 8 8 7 6 6 6 5 2 4 5 5 5 5 4 4 4 4 3 3 3
10 11 11 10 10 9 9 8 8 7 6 6 6 6 7 7 7 7 7 7 8 8 7 7 8 8 6 5 6 6 2 3 3 5 5 4 4 4 3 3 3 3 2
7 10 10 10 9 9 9 8 8 6 4 5 5 5 5 6 6 6 7 6 6 7 7 6 7 7 8 6 5 5 6 6 1 1 4 4 4 4 3 3 3 2 2
6 7 9 9 9 9 8 8 7 6 6 6 5 4 4 4 5 5 5 6 6 5 6 6 6 6 6 6 5 4 4 4 4 2 -0 2 3 3 3 3 2 2 1
5 6 7 8 8 8 8 8 8 7 5 5 4 3 3 4 4 4 5 5 5 5 5 4 5 5 5 6 5 5 5 4 3 2 -1 0 1 3 3 3 2 1 1
Height
760 760 762 763 764 766 767 769 769 771 773 775 776 778 780 783 783 782 785 787 790 790 792 794 795 797 798 801 801 802 804 805 807 808 809 810 811 812 812 813 813 815 815
758 760 761 762 764 765 767 768 770 770 772 775 776 777 780 779 783 784 787 788 791 792 795 795 797 798 801 802 803 804 807 808 810 811 811 813 814 815 815 816 817 817 818
758 759 760 762 763 765 767 768 770 770 770 773 775 776 780 781 782 783 788 788 793 794 798 798 800 799 803 806 806 808 809 810 812 813 814 816 817 818 819 818 819 821 821
756 758 760 761 762 764 766 767 768 770 771 772 774 776 779 780 781 784 788 788 794 798 800 801 802 804 806 808 809 810 811 812 814 815 816 818 820 820 821 822 822 824 824
757 758 760 760 762 764 764 765 767 768 771 773 774 775 778 779 782 784 788 788 797 799 801 803 805 806 808 810 812 813 814 814 816 817 819 820 822 824 824 824 825 826 827
756 757 759 760 762 763 763 762 764 766 770 772 773 776 776 778 779 782 786 788 797 801 803 804 806 808 810 812 814 815 815 816 818 819 820 823 825 826 827 828 828 829 830
755 757 759 761 762 763 762 762 763 765 767 768 771 772 768 771 778 782 789 790 799 803 805 807 808 809 811 813 815 816 817 819 820 820 822 826 829 829 830 830 830 831 832
754 757 760 761 762 764 762 762 760 765 764 767 767 774 774 771 784 786 788 794 800 804 808 808 809 810 813 815 817 818 819 820 821 824 826 828 831 831 832 832 833 834 834
754 756 759 761 763 764 763 762 765 765 764 764 768 773 779 786 789 788 792 798 802 805 809 809 809 811 814 816 818 819 821 822 824 826 828 830 832 833 834 834 835 835 837
754 755 758 761 763 764 765 766 768 769 768 770 772 776 782 790 796 794 795 800 804 807 807 808 811 812 815 817 820 821 822 824 826 827 829 831 833 835 837 836 838 838 840
755 755 757 759 762 764 767 769 771 773 773 774 774 775 783 792 798 796 796 799 804 807 806 807 812 814 815 817 821 822 823 825 826 828 830 833 835 837 838 838 840 840 840
753 755 756 758 760 762 765 768 770 772 775 777 777 780 787 789 793 796 796 799 805 805 808 811 812 813 815 818 821 823 824 826 827 830 832 835 836 838 839 841 841 842 843
750 753 757 758 759 760 761 765 771 775 778 778 779 783 783 787 792 795 797 800 804 803 806 810 812 813 816 820 822 823 826 828 829 831 834 836 838 840 842 842 843 844 844
747 750 753 757 760 761 761 764 768 771 776 780 781 784 787 788 791 795 800 803 801 801 806 812 812 815 817 820 823 824 827 829 831 831 834 838 839 841 843 844 844 845 846
743 746 749 754 758 760 763 766 768 769 773 776 781 783 787 789 791 795 799 801 801 801 805 810 813 815 818 821 824 824 827 830 832 833 834 838 840 842 845 846 846 846 847
738 741 746 750 754 759 762 764 766 770 773 776 777 781 786 790 793 796 797 799 800 802 805 811 814 816 819 822 824 825 828 831 833 834 836 839 841 844 845 846 847 847 847
729 736 741 746 751 755 760 765 768 771 773 775 777 779 783 788 789 791 795 796 798 803 807 812 816 817 819 823 824 827 829 832 833 836 838 840 841 844 844 846 847 846 847
722 729 736 743 747 752 756 761 765 768 770 773 775 777 782 784 785 788 792 797 800 803 807 812 816 819 821 823 826 828 830 833 835 837 839 841 842 843 845 845 846 847 847
716 723 731 737 743 749 754 759 764 767 771 774 775 778 781 782 784 787 791 796 799 802 807 811 816 817 820 823 826 829 831 835 837 838 840 841 843 843 844 845 846 846 847
713 719 727 733 738 746 752 758 763 767 772 775 776 778 780 782 785 788 792 795 800 801 806 809 811 815 820 822 825 830 832 835 837 838 840 842 843 843 844 844 846 846 846
714 719 724 729 735 741 747 754 760 764 769 772 776 779 780 784 787 790 791 795 798 801 805 807 810 815 818 823 826 830 833 836 836 837 838 840 841 842 843 844 845 845 845
714 718 722 726 730 737 744 751 757 762 767 771 774 778 782 784 786 789 791 792 796 799 805 806 807 812 818 821 824 827 835 836 836 837 837 840 840 842 842 844 844 844 843
717 718 721 725 729 732 740 748 754 761 766 770 774 778 780 783 787 789 791 793 796 799 803 805 806 809 813 819 820 821 830 831 833 835 837 840 840 841 843 843 843 842 843
722 721 723 725 729 733 737 743 749 755 762 766 769 774 778 782 785 788 790 794 797 798 801 804 806 808 809 812 818 819 818 821 828 837 835 837 839 840 840 840 842 842 842
722 724 725 728 730 734 738 742 748 753 758 762 768 772 776 781 785 788 790 792 794 798 801 802 805 805 809 810 813 816 819 821 822 826 836 835 837 838 839 838 839 842 840
726 727 730 730 732 736 739 742 745 750 756 760 765 769 773 777 782 785 789 791 793 795 798 801 802 807 807 808 810 811 814 816 817 820 826 831 831 834 836 836 836 838 838
Wind_Speed
8 8 13 13 11 11 12 11 13 16 14 12 14 14 15 15 16 16 16 17 13 15 16 17 19 21 21 21 22 23 23 23 23 23 23 21 21 21 22 24 24 22 21
10 7 13 14 13 11 11 11 11 12 14 12 15 16 15 13 17 19 18 18 15 16 16 19 20 22 22 22 22 23 23 24 23 23 23 22 21 21 21 21 22 22 22
10 6 8 12 12 10 11 10 11 13 14 16 16 17 16 17 19 20 19 20 17 17 18 20 21 24 22 23 22 24 24 25 26 24 23 23 20 20 21 21 21 20 20
8 7 3 7 10 10 9 11 11 11 14 18 18 20 20 20 22 23 22 23 19 18 19 22 22 21 21 22 23 23 26 25 24 26 27 25 21 21 20 20 21 20 19
10 7 4 7 10 8 10 12 13 12 11 15 19 20 22 23 26 28 24 25 20 21 20 21 21 20 21 21 21 22 21 22 22 22 22 23 22 20 21 22 21 19 19
11 9 8 13 13 9 5 8 13 13 10 12 17 21 24 30 30 31 26 24 18 17 18 16 18 19 22 23 23 21 20 19 21 21 17 20 20 18 18 17 19 20 19
16 12 13 13 13 9 11 6 8 15 17 19 18 30 23 35 30 26 24 24 18 15 14 16 17 19 22 22 25 25 21 18 16 17 19 18 16 16 17 17 16 17 17
17 14 15 13 13 11 12 12 15 27 30 28 25 21 27 27 26 26 23 21 20 18 16 17 16 18 21 20 22 22 20 18 17 18 20 19 16 16 18 18 18 16 16
15 17 17 15 14 14 16 21 26 27 29 32 32 27 25 21 21 25 24 21 19 18 16 16 17 19 20 19 19 18 17 15 17 17 17 18 15 16 16 17 18 18 18
17 19 20 21 20 21 23 23 27 28 29 29 31 28 24 21 20 23 25 22 19 17 17 16 16 18 19 18 17 16 14 15 14 14 17 17 16 15 15 18 18 18 17
17 22 23 23 22 23 25 25 24 25 26 27 28 32 31 28 24 24 25 23 19 18 17 17 17 18 19 18 17 15 13 13 13 15 19 18 18 18 17 18 18 17 17
21 22 24 25 25 26 27 26 27 29 29 31 32 32 28 24 22 22 22 21 18 18 17 16 16 19 19 18 18 15 14 15 20 23 20 17 17 17 16 13 14 14 13
25 25 24 27 28 28 30 29 27 24 24 29 30 28 28 27 25 23 24 21 19 20 16 14 17 16 17 17 18 18 17 20 24 25 20 18 17 14 14 14 14 13 13
27 28 27 28 28 30 31 31 28 27 25 24 22 22 23 24 24 21 21 19 19 18 16 14 16 17 17 18 19 17 18 21 24 26 23 18 16 16 14 13 12 12 11
28 29 30 31 29 27 28 29 29 27 28 25 22 20 19 22 23 20 19 18 18 18 16 15 16 17 18 18 20 17 18 19 20 22 21 18 17 15 13 12 12 11 10
32 31 31 33 32 29 28 28 26 25 25 24 23 20 19 20 21 20 19 18 17 16 17 15 15 17 18 19 21 17 19 18 19 20 22 18 15 14 13 11 10 10 9
36 36 34 34 35 32 27 28 28 27 26 24 23 21 20 19 18 15 15 14 14 14 15 15 16 16 18 18 20 18 17 15 17 16 13 12 11 12 12 10 9 9 8
34 39 37 32 34 34 29 27 25 24 23 23 23 23 21 21 19 19 17 17 18 18 17 17 16 17 17 17 17 17 17 15 13 12 11 9 9 9 8 8 9 9 8
39 39 37 34 33 34 30 28 25 23 22 21 22 23 22 21 22 22 21 21 22 21 20 19 18 17 18 17 16 14 14 13 12 12 10 9 7 5 6 7 7 8 9
35 38 37 33 34 32 30 28 25 25 23 22 23 23 22 22 22 23 23 24 23 23 22 21 21 19 18 19 18 15 12 11 11 10 10 9 7 5 4 4 3 5 6
30 33 34 29 33 35 33 30 27 26 24 23 22 23 23 23 24 24 24 23 22 23 23 22 21 22 19 18 19 11 10 9 10 11 9 7 7 5 3 1 1 1 1
28 31 30 31 34 33 32 28 23 27 26 25 24 23 24 24 24 24 24 25 23 22 19 22 24 22 18 21 6 8 3 2 7 10 10 9 7 5 5 2 1 2 1
12 20 28 31 34 32 33 29 21 24 22 21 21 22 24 24 23 23 23 23 23 22 23 22 24 22 17 19 11 5 3 3 4 7 9 9 9 7 7 3 2 2 1
17 14 18 29 31 31 30 29 29 24 17 18 27 24 24 24 24 22 21 21 21 23 23 21 21 18 16 20 12 7 4 7 3 1 6 10 10 9 8 5 4 3 1
17 17 10 20 27 29 28 28 27 24 23 19 22 23 23 23 22 21 22 22 21 18 19 21 19 17 17 19 14 11 8 6 6 4 3 7 11 11 9 5 4 4 3
17 14 14 12 19 27 27 26 27 25 21 17 20 24 24 23 22 20 20 20 19 19 16 14 15 15 13 15 13 13 11 6 6 5 3 3 6 10 9 5 5 5 4
Wind_Direction
162 183 192 184 171 162 156 173 179 179 163 168 161 156 142 134 117 108 110 112 108 119 123 122 117 112 110 108 105 106 107 108 108 107 103 98 94 92 94 96 92 93 96
153 183 190 188 185 174 172 167 182 171 174 183 174 160 161 149 128 114 114 108 104 112 121 119 116 109 108 106 105 105 104 104 106 104 100 96 94 94 94 98 89 86 91
182 200 188 196 199 185 180 181 184 193 184 182 178 176 163 151 129 119 116 108 103 109 112 108 105 102 105 103 105 107 104 103 103 100 96 93 96 95 93 90 91 88 87
144 126 166 201 200 198 189 192 198 191 190 186 171 160 156 148 135 125 114 107 101 108 113 107 105 107 102 100 102 108 109 110 106 98 93 88 85 86 95 91 89 92 91
130 142 191 207 188 185 209 207 209 204 195 193 187 172 160 150 139 125 115 109 105 104 108 102 104 106 105 101 100 106 111 109 108 106 93 86 80 77 82 86 93 87 86
145 143 129 137 152 148 143 202 201 196 182 208 200 177 158 137 118 118 114 119 123 107 104 115 107 116 118 110 100 108 111 114 106 103 100 85 75 75 79 83 84 85 87
139 134 124 128 145 147 107 123 171 172 146 116 116 117 115 110 109 108 108 111 120 130 124 110 106 120 125 113 103 103 109 108 105 106 106 91 83 81 83 84 88 85 80
148 144 131 126 131 132 113 102 114 121 113 105 105 95 93 93 108 111 110 113 116 115 114 110 109 121 125 117 110 108 109 110 105 106 106 96 89 87 88 89 86 85 81
157 153 142 132 132 126 121 117 115 120 119 113 107 102 105 110 112 114 117 118 120 124 118 114 119 129 130 122 114 115 109 114 113 110 107 97 91 90 92 90 88 88 87
154 147 143 139 138 132 122 121 122 119 116 117 118 115 110 121 122 122 121 124 125 121 116 117 127 132 129 125 119 120 125 120 110 110 103 95 96 94 93 93 92 93 93
157 151 153 149 145 141 133 129 130 133 131 128 130 134 141 142 141 133 130 122 123 120 112 113 121 131 132 128 124 123 129 119 113 113 105 101 101 100 101 96 94 93 91
174 161 160 162 154 151 146 146 142 139 141 142 144 149 150 148 140 134 128 125 127 119 114 113 122 123 129 130 128 129 129 120 116 109 108 122 114 101 98 108 99 99 97
181 175 174 168 165 161 157 160 157 149 144 143 148 149 146 148 147 142 138 138 134 127 126 121 128 131 133 130 127 125 126 125 121 120 124 120 105 104 100 101 98 96 96
184 187 186 180 175 173 171 164 160 158 156 156 151 152 151 148 147 142 140 140 133 131 123 126 128 129 129 132 133 126 132 134 131 125 121 124 113 104 102 99 99 95 93
181 189 191 186 181 178 177 173 171 164 163 161 157 154 156 152 153 151 151 144 139 133 132 130 130 131 130 133 136 131 139 140 139 135 135 140 106 104 101 100 98 95 90
188 189 193 192 189 182 179 179 176 174 172 173 169 167 167 163 160 160 154 147 137 135 137 141 138 137 135 139 138 130 137 141 148 146 145 143 106 105 104 99 97 90 85
191 189 194 194 196 193 189 183 182 184 184 180 175 173 174 176 169 162 160 153 146 145 145 148 144 140 138 142 142 136 137 142 150 156 155 142 124 108 103 101 90 82 77
183 188 193 190 194 198 196 190 189 192 188 187 184 180 180 177 174 169 166 162 158 154 154 152 149 141 137 136 135 138 128 138 141 145 145 141 138 128 116 102 87 74 71
187 185 186 185 191 199 198 199 197 194 194 189 184 184 182 179 176 174 169 166 164 159 157 157 151 151 144 138 134 136 138 142 141 146 147 144 145 133 119 92 82 71 68
184 186 185 180 188 192 183 182 186 188 192 191 187 186 183 182 180 177 172 169 171 166 166 163 157 153 149 146 138 136 143 149 157 171 172 179 177 156 125 111 130 96 68
179 175 176 173 181 183 174 170 172 176 185 190 193 192 187 184 185 186 178 177 176 175 174 166 156 154 147 154 135 128 138 158 164 173 179 177 169 163 160 155 170 134 170
170 175 172 173 175 179 178 176 175 180 181 189 191 191 191 190 190 191 188 181 180 176 178 171 166 153 154 165 155 137 147 169 186 179 177 183 172 172 181 222 266 350 1
72 166 170 172 173 176 177 175 173 176 172 177 188 193 192 193 193 195 192 186 182 182 180 178 173 171 162 184 185 158 126 184 145 191 195 189 182 192 180 209 265 331 348
40 91 163 176 175 180 181 179 179 173 170 192 193 194 193 193 194 194 189 191 190 185 185 186 186 189 182 182 182 194 141 137 150 139 202 205 208 208 199 234 247 253 257
38 53 93 177 179 183 182 186 187 191 200 198 199 193 192 192 197 191 189 188 189 191 187 189 190 191 190 183 178 163 170 159 144 138 175 189 202 206 204 215 234 227 229
32 39 60 133 164 183 184 188 194 195 191 187 195 196 193 194 194 195 195 194 190 186 187 187 186 197 193 190 189 185 179 172 182 157 127 157 178 189 197 224 257 217 238